Вернуться в каталог

THOR ALTAIR R/B

АктивенSSO
NORAD 1583·ROCKET BODY·🇺🇸 United States

Запущен Sep 10, 1965 с Vandenberg Space Force Base

Loading…

Ближайшие Пролёты (ближайшие 24 часа)

TLE

СвежийSource: Space-Track

Эпоха: Sep 14, 2026, 02:01 UTC

1 01583U 65072D   26257.08403518  .00001067  00000-0  18156-3 0  9996
2 01583  98.3740 133.5155 0138672 315.4452  43.5668 14.65272107179963

Отслеживайте THOR ALTAIR R/B в реальном времени с AllMySat

Download on the App Store